Theta_e
307 306 305 304 305 306 307 305 306 307 309 306 304 304 305 304 304 303 303 303 302 302 301 301 301 301 301 301 300 301 301 302 301 300 300 299 299 299 299 300 303 302 302 300
299 305 306 304 304 304 305 307 307 307 306 305 305 305 304 304 304 302 302 302 301 301 301 301 301 301 301 300 300 300 301 301 301 300 299 299 299 299 299 298 298 299 301 304
304 305 304 300 304 304 304 305 306 305 305 304 304 304 304 305 303 302 301 301 300 301 301 301 301 301 301 300 300 300 300 300 299 297 295 296 296 296 296 295 296 296 297 297
301 304 297 302 308 305 305 306 305 306 303 304 304 305 304 303 302 301 300 300 301 300 301 301 301 301 300 299 299 299 298 296 296 295 296 296 296 296 295 295 294 294 294 295
299 302 303 306 307 306 304 305 305 305 304 304 304 304 303 302 301 300 300 300 300 300 301 301 300 298 298 298 298 297 297 297 296 296 296 296 295 295 295 294 294 294 294 294
297 298 304 308 306 307 306 303 306 306 304 304 303 300 301 302 300 300 300 300 299 299 300 300 299 298 297 297 297 296 296 297 296 296 296 295 295 295 294 294 293 293 293 294
296 297 304 306 306 306 302 302 306 306 305 304 301 303 302 301 300 300 299 299 299 299 300 300 299 298 297 296 296 295 295 295 295 295 294 294 295 294 293 292 293 292 292 293
303 298 303 306 305 303 304 307 307 306 304 303 304 303 302 300 300 299 299 299 299 299 299 299 299 298 297 296 295 294 294 294 294 294 293 293 293 293 292 292 291 292 292 292
303 303 305 308 305 307 306 305 304 304 303 303 304 303 301 300 300 299 299 299 299 297 298 298 298 297 296 294 294 294 293 293 293 292 292 292 291 290 290 291 291 290 291 291
303 304 306 307 306 307 306 305 304 303 303 303 304 302 300 300 299 299 298 298 297 296 295 295 295 294 293 293 293 293 293 292 292 291 291 290 290 290 290 290 289 290 290 289
303 306 306 307 306 305 306 305 304 303 303 304 304 301 300 300 299 298 297 297 295 294 294 293 292 291 292 292 293 292 292 291 291 291 290 291 290 290 289 289 289 289 289 289
302 306 305 307 306 305 305 304 303 303 302 304 303 300 300 299 299 298 297 295 295 295 294 294 293 291 292 292 292 292 291 290 290 289 289 290 289 289 289 289 289 288 289 288
306 306 306 306 306 305 305 304 303 303 302 303 301 299 300 299 299 297 297 297 296 295 295 294 293 292 291 292 291 291 290 289 289 289 289 288 288 288 288 288 288 288 288 288
306 306 306 306 306 305 305 304 304 302 302 303 302 299 299 298 297 298 298 297 296 295 295 294 293 292 292 292 291 290 290 289 289 288 288 288 288 288 287 287 288 288 288 288
305 306 306 305 304 304 304 303 303 303 302 302 300 299 299 297 298 298 298 297 297 296 295 292 291 291 291 291 291 290 289 289 289 288 288 288 288 287 287 287 287 287 287 288
304 304 305 304 304 303 303 303 302 302 302 300 299 299 299 298 298 298 297 297 296 295 291 290 291 291 292 291 290 290 289 289 288 288 288 288 288 287 287 287 287 287 287 287
304 303 303 303 303 303 302 302 302 302 301 299 299 299 299 299 298 298 296 292 290 290 289 290 290 292 291 290 290 289 289 289 288 288 288 287 287 287 287 287 287 287 287 287
303 303 303 302 302 302 302 302 302 302 301 299 299 299 299 298 296 292 290 289 289 288 288 288 290 291 290 290 289 289 289 289 288 288 288 287 287 287 287 287 287 287 287 287
302 302 303 302 302 302 302 301 302 302 300 299 299 299 298 294 291 290 289 288 287 287 288 287 289 288 288 289 289 289 289 289 288 288 287 287 286 286 286 286 286 286 287 287
302 302 302 302 302 301 301 302 301 300 299 299 299 297 294 291 289 288 288 287 288 289 287 287 287 287 287 288 288 288 289 288 288 288 287 287 286 286 286 286 286 286 286 286
302 301 301 301 301 301 302 302 301 299 298 298 297 294 291 289 288 288 287 288 289 288 286 285 285 285 285 285 287 288 288 288 288 287 287 286 286 285 285 286 286 286 286 286
301 301 301 301 301 302 302 301 300 298 298 297 295 291 289 288 288 287 287 288 287 286 285 285 285 285 284 284 286 285 287 288 287 287 287 286 285 285 285 286 286 286 286 286
301 301 301 301 301 301 300 299 300 299 297 294 291 289 288 287 286 287 286 286 285 285 285 285 285 285 285 284 285 285 286 287 287 287 287 286 285 285 285 285 286 286 286 286
301 300 300 300 300 300 299 298 297 295 292 291 289 287 287 286 286 286 285 285 284 284 284 284 284 284 284 284 285 285 286 287 287 287 286 285 285 284 285 286 286 286 287 287
300 300 300 299 298 298 297 295 293 291 289 287 288 288 287 286 285 284 284 284 284 284 284 284 284 284 284 285 285 286 285 287 287 287 286 285 285 284 286 286 286 287 287 287
300 299 298 297 297 295 293 292 290 288 288 289 289 288 286 285 284 284 284 284 284 284 283 284 283 284 285 285 285 285 285 287 288 287 286 286 285 286 286 286 287 287 287 287
297 295 293 293 293 293 291 290 291 290 289 288 286 285 284 284 284 284 284 284 284 283 283 283 283 284 285 285 285 284 286 287 287 286 286 286 285 286 287 287 287 287 287 287
Wind_Speed
3 3 1 2 6 11 9 7 4 4 5 11 8 7 7 9 11 12 13 14 15 15 16 16 17 16 16 22 21 22 22 18 24 28 31 29 26 25 22 23 25 25 22 19
5 4 7 7 8 8 8 11 11 8 4 10 15 11 11 7 11 11 10 11 11 12 14 16 17 14 15 15 17 19 14 18 23 28 26 24 26 28 30 27 24 22 22 24
3 3 1 6 14 14 9 8 6 5 6 10 7 11 6 14 13 10 8 9 10 11 14 14 14 15 18 18 16 15 18 22 24 23 23 24 25 27 29 30 28 26 22 21
2 4 1 7 3 16 12 8 8 7 9 14 14 17 17 13 12 8 5 6 5 8 10 10 13 18 20 13 16 16 19 22 22 22 23 23 27 29 30 29 31 30 28 25
4 3 6 5 7 6 11 10 9 8 14 20 18 21 15 12 9 5 3 2 6 6 7 12 16 13 11 13 15 19 20 24 24 24 25 27 31 31 32 33 31 29 27 25
2 4 6 6 6 12 6 4 9 17 17 17 17 4 4 9 7 4 3 5 11 7 7 14 18 19 14 14 17 20 20 22 21 23 25 28 28 31 35 39 32 29 28 26
3 3 7 8 9 17 6 7 15 22 24 22 6 11 15 10 7 4 3 6 10 7 6 12 16 18 18 19 20 20 22 23 22 23 26 25 28 32 36 35 30 30 30 28
4 2 8 15 11 11 6 7 17 25 25 21 22 19 15 11 7 4 2 2 6 7 8 8 14 18 19 19 18 20 23 24 22 25 21 26 31 33 29 29 31 31 30 30
9 7 9 5 7 11 17 19 19 21 19 19 15 12 12 9 5 3 1 4 7 8 7 9 13 18 21 19 18 20 23 24 25 23 24 28 28 31 30 31 30 32 31 33
4 9 16 14 23 19 15 17 15 15 14 16 16 14 12 9 7 5 5 6 8 9 10 13 16 18 15 15 17 19 23 24 24 26 29 29 30 27 29 31 31 31 32 34
4 7 16 18 20 23 19 16 19 17 14 17 17 15 12 10 9 7 6 7 8 10 13 16 20 18 16 17 17 22 26 26 25 27 30 32 31 32 31 30 28 30 31 32
5 11 9 12 18 19 25 24 19 20 16 17 19 14 13 11 10 8 6 6 8 12 16 18 22 20 18 17 19 25 25 26 26 30 30 31 35 36 32 33 31 29 28 29
10 12 27 15 18 20 19 29 25 20 19 20 17 15 14 13 11 7 5 7 11 14 15 18 22 20 20 20 25 23 24 25 27 29 31 34 33 33 38 38 34 33 32 32
27 19 10 18 20 23 22 22 25 25 21 22 21 20 16 14 9 3 4 8 9 10 14 18 22 20 21 24 26 26 25 25 26 30 32 30 31 32 34 37 38 39 37 33
18 20 21 13 15 19 21 17 23 27 24 23 23 22 17 11 6 6 7 7 11 15 18 18 19 19 21 23 25 24 23 24 27 31 29 29 30 33 34 35 36 37 38 35
14 16 24 23 19 19 19 20 19 28 27 25 22 17 14 11 8 6 8 13 16 18 18 18 18 20 20 23 24 23 23 25 28 29 30 31 31 34 34 36 36 36 36 37
22 18 20 22 22 25 23 21 25 27 23 20 16 14 12 13 13 13 13 14 15 16 16 17 18 16 22 23 23 26 26 27 29 29 30 31 31 35 35 35 36 36 37 37
26 26 25 26 22 24 25 26 24 25 21 22 22 19 18 15 13 12 12 12 12 12 13 15 16 18 19 22 23 26 26 28 29 30 31 32 33 34 34 35 35 35 37 36
24 26 27 29 25 26 25 27 26 25 26 28 23 19 16 13 11 10 9 9 11 14 15 17 17 19 22 21 24 27 28 21 26 29 32 33 33 34 35 34 34 35 35 36
30 22 23 28 25 25 29 29 27 26 28 26 21 15 12 10 8 7 8 9 10 13 17 18 20 22 21 20 24 26 25 21 25 29 32 33 33 35 35 33 33 34 35 35
32 25 22 27 27 25 31 30 29 27 23 18 15 12 9 7 7 7 8 9 10 14 18 20 23 24 21 21 24 24 26 22 25 30 31 32 35 36 35 34 34 34 35 34
34 28 25 31 29 29 30 29 28 25 20 16 13 10 8 7 7 8 7 9 12 16 18 19 21 23 24 23 22 25 25 21 24 29 30 32 35 35 33 32 33 34 33 31
31 29 28 31 30 32 31 28 24 20 17 14 11 9 7 7 6 6 8 9 12 15 17 19 21 23 24 27 25 23 24 21 24 28 29 33 34 33 31 31 32 32 30 29
32 31 31 29 31 33 31 25 20 17 14 11 9 7 6 6 6 8 10 11 13 15 17 19 21 23 24 25 23 21 22 23 23 27 29 33 33 31 29 29 30 28 27 27
33 30 29 32 33 30 26 22 18 14 12 10 8 6 5 5 8 10 11 11 14 16 18 19 22 23 25 25 23 21 20 21 21 25 30 31 33 29 27 26 26 24 25 24
31 31 32 30 28 24 21 17 14 13 12 9 8 7 6 8 10 12 13 14 16 18 19 21 23 24 24 24 23 22 19 19 20 25 28 33 29 27 24 23 22 22 22 21
31 31 28 24 20 19 17 15 14 13 11 9 8 7 7 9 12 13 15 16 17 18 20 22 24 24 24 23 22 19 16 17 19 24 28 30 26 24 21 19 18 19 18 17
Wind_Direction
284 58 124 252 204 189 173 203 161 246 186 167 147 137 122 83 79 55 42 38 31 23 16 13 6 353 340 339 355 0 356 352 353 348 347 354 350 347 340 329 326 333 336 336
341 304 294 244 244 245 222 199 210 229 81 133 146 147 101 89 96 68 44 33 23 13 6 2 359 3 6 2 351 359 357 343 332 333 339 343 344 342 338 342 339 329 317 310
259 182 311 323 226 222 217 225 189 189 175 150 116 105 112 107 96 74 43 21 10 1 356 358 332 329 338 348 345 341 331 335 334 337 341 345 338 333 333 337 337 336 332 330
187 33 341 242 194 204 208 210 198 134 146 130 120 113 107 103 98 82 53 26 4 346 4 337 325 325 326 346 350 342 336 339 345 346 346 346 339 337 336 335 333 331 328 327
136 201 278 288 223 182 180 230 183 181 142 139 133 119 104 112 100 91 62 357 337 5 343 318 330 353 349 343 336 339 345 349 348 351 349 344 338 335 335 335 332 328 327 326
96 156 218 240 148 166 124 256 204 166 154 148 142 117 204 126 119 110 48 353 349 10 336 332 343 350 352 349 335 338 338 341 343 345 342 333 333 328 330 328 328 331 328 327
164 225 280 264 162 123 111 230 200 180 155 149 127 153 142 142 132 105 51 350 339 11 349 342 336 336 336 332 331 337 336 336 340 334 330 329 321 320 322 323 328 330 329 329
180 174 268 234 154 158 197 104 181 155 146 135 134 137 147 144 136 138 104 337 335 348 356 335 323 318 322 327 330 330 333 332 330 327 329 320 317 319 327 331 328 329 328 327
180 205 241 250 179 135 152 133 122 135 144 153 148 149 160 153 156 149 202 296 300 317 309 299 301 307 314 327 328 331 334 331 328 330 326 325 330 330 331 330 327 328 327 324
122 241 249 265 176 156 153 158 153 152 159 170 169 174 162 167 180 201 247 281 302 318 322 317 315 319 330 332 332 331 332 332 331 328 329 329 331 330 328 326 327 326 324 321
225 266 210 235 171 182 172 172 178 179 178 178 175 174 170 175 197 221 246 280 305 325 334 335 339 343 345 338 334 332 328 328 328 329 328 328 330 327 325 326 324 320 317 318
216 200 188 200 194 188 185 184 174 170 170 178 184 174 182 188 216 234 271 303 324 334 336 341 348 352 348 342 332 330 327 326 329 330 330 329 328 325 327 328 327 324 320 318
191 191 220 219 200 203 204 190 187 185 184 183 177 180 183 195 227 249 291 332 332 335 335 330 337 345 334 336 334 333 327 326 330 332 328 327 330 328 327 332 331 329 328 326
212 195 198 208 211 204 208 206 202 195 193 198 196 187 195 211 224 247 292 303 323 315 315 317 326 334 331 331 335 337 332 330 331 329 327 329 331 329 327 330 329 330 333 333
219 206 209 209 201 188 191 180 197 185 185 175 181 185 200 210 206 224 268 290 283 286 299 310 321 323 323 329 330 330 332 329 328 329 329 330 331 332 329 330 330 328 329 333
219 217 212 211 205 193 198 210 199 181 180 177 176 179 196 214 218 236 242 261 281 295 308 311 315 314 314 322 330 337 337 332 332 331 332 334 333 333 332 329 330 331 330 333
246 223 214 209 212 199 197 190 191 180 177 179 190 194 192 204 221 241 263 279 289 297 307 312 314 317 324 334 337 337 331 331 335 333 334 335 334 332 332 330 330 330 332 332
238 241 236 218 217 198 193 192 192 185 187 186 186 190 206 224 244 266 281 295 306 313 320 324 328 327 330 329 330 327 329 326 330 333 335 335 333 332 333 332 331 331 331 332
230 240 234 215 212 203 194 188 185 185 191 184 184 201 219 240 256 276 296 311 316 323 336 334 327 327 326 327 323 325 329 329 332 333 334 334 334 334 334 332 332 332 332 331
224 235 211 199 199 192 191 185 181 183 179 184 193 211 232 249 269 285 299 313 321 327 332 328 323 319 316 321 320 324 335 329 332 333 333 335 335 334 333 333 333 332 332 331
213 208 198 193 192 192 188 183 186 184 185 194 208 220 228 244 264 281 296 312 320 319 323 323 323 321 315 321 327 325 329 330 333 334 334 335 334 333 333 334 335 335 334 335
196 190 193 188 187 182 180 183 187 188 194 205 210 218 227 241 258 273 292 309 310 315 318 325 329 331 333 325 323 323 328 332 332 334 336 334 334 333 332 335 336 336 336 337
185 186 185 183 181 175 170 174 181 192 195 199 208 218 230 245 257 274 297 303 310 317 324 329 331 332 328 328 325 327 328 332 329 333 334 332 332 334 335 335 336 338 339 340
176 175 171 172 175 172 168 168 177 181 189 198 204 210 227 245 273 291 300 309 312 317 324 328 329 328 327 325 322 327 331 328 328 331 331 332 333 334 335 336 338 341 342 344
164 162 168 166 165 166 167 168 172 180 185 187 194 210 240 277 292 297 303 308 313 317 322 325 326 328 328 327 325 323 325 324 327 325 330 332 334 334 337 339 340 343 345 349
159 160 158 162 164 163 166 168 174 172 176 182 209 246 265 277 287 297 305 311 314 316 318 322 326 327 328 326 322 320 321 322 325 324 329 329 334 337 339 341 344 347 350 353
151 150 149 149 154 155 157 166 170 173 191 211 229 253 273 290 297 302 305 310 313 315 319 321 324 327 329 326 323 319 320 320 321 323 326 330 337 337 340 344 348 351 356 2